Content
SEND FEEDBACK

Daily
Averages
Monthly
Summary
Philippines

CAVITE, PHILIPPINES


Home > Asia > Philippines
Elevation: 13 feet     Latitude: 14 30N     Longitude: 120 55E

WEATHER
 
SELECT A DAY
Number of Records: 172,421;   Date Range: 7/1/96 - 7/23/14
 
SHARE

PRINT THIS DATA

[ ← Previous Day ]
WEATHER ALMANAC - FEBRUARY 3, 2013
[ Next Day → ]
[ °C ]   °F
Weather ElementAverageHighLow
Temperature81.7 °F87.8 °F (11:00 am)75.2 °F (6:00 am)
Dewpoint69.1 °F71.6 °F (1:00 am)66 °F (5:00 pm)
Humidity64.9 %89 % (6:00 am)45 % (5:00 pm)
Barometer29.98 in30.02 in (11:00 am)29.92 in (2:00 pm)
Wind Speed8.3 mph13.8 mph (3:00 pm)
Weather ElementAverage
Visibility6.2 mi
Wind DirectionE (92.8 °)

Weather ElementTotal
Precipitation---
Cooling Degree Days16.5 (Base 65)
Growing Degree Days31.5 (Base 50)
Averaged from 29 records on February 3, 2013
WEATHER CONDITIONS BREAKOUT
WIND DIRECTION BREAKOUT
WEATHER BY HOUR - FEBRUARY 3, 2013
[ °C ]   °F
Local TimeTemperatureDewpointHumidityBarometerVisibilityWind DirectionWind SpeedGust SpeedPrecipitationEventsConditions
1:00 AM78.8 °F71.6 °F78 %30.01 in6.2 miESE (110°)6.9 mphPartly Cloudy
2:00 AM79.0 °F70.0 °F68 %29.99 in6.0 miEast (100°)6.7 mphHaze
2:00 AM78.8 °F69.8 °F74 %29.98 in6.2 miEast (100°)8.1 mphPartly Cloudy
3:00 AM78.8 °F69.8 °F74 %29.98 in6.2 miEast (100°)6.9 mphScattered Clouds
4:00 AM78.8 °F69.8 °F74 %29.95 in6.2 miEast (90°)5.8 mphPartly Cloudy
5:00 AM78.0 °F71.0 °F75 %29.96 in6.0 miEast (100°)6.7 mphHaze
5:00 AM78.8 °F71.6 °F78 %29.95 in6.2 miEast (100°)5.8 mphScattered Clouds
6:00 AM75.2 °F71.6 °F89 %29.98 in6.2 miENE (60°)4.6 mphScattered Clouds
7:00 AM75.2 °F69.8 °F83 %29.98 in6.2 miENE (70°)4.6 mphPartly Cloudy
8:00 AM80.0 °F70.0 °F65 %30.00 in6.0 miESE (110°)4.5 mphHaze
8:00 AM80.6 °F69.8 °F70 %30.01 in6.2 miESE (110°)4.6 mphPartly Cloudy
9:00 AM82.4 °F68.0 °F62 %30.01 in6.2 miEast (100°)6.9 mphScattered Clouds
10:00 AM86.0 °F69.8 °F58 %30.01 in6.2 miEast (80°)5.8 mphPartly Cloudy
11:00 AM87.8 °F69.8 °F55 %30.01 in6.2 miESE (110°)8.1 mphPartly Cloudy
11:00 AM87.0 °F70.0 °F48 %30.02 in6.0 miESE (110°)8.9 mphPartly Cloudy
12:00 PM87.8 °F71.6 °F58 %29.98 in6.2 miVariable9.2 mphPartly Cloudy
1:00 PM87.8 °F68.0 °F52 %29.95 in6.2 miEast (80°)11.5 mphPartly Cloudy
2:00 PM87.8 °F69.8 °F55 %29.92 in6.2 miESE (110°)10.4 mphPartly Cloudy
3:00 PM87.8 °F68.0 °F52 %29.92 in6.2 miEast (90°)13.8 mphScattered Clouds
4:00 PM86.0 °F66.2 °F51 %29.92 in6.2 miEast (90°)13.8 mphMostly Cloudy
5:00 PM84.2 °F66.2 °F55 %29.95 in6.2 miEast (90°)11.5 mphScattered Clouds
5:00 PM84.0 °F66.0 °F45 %29.94 in6.0 miEast (90°)11.2 mphScattered Clouds
6:00 PM82.4 °F66.2 °F58 %29.95 in6.2 miEast (100°)9.2 mphScattered Clouds
7:00 PM80.6 °F66.2 °F61 %29.98 in6.2 miEast (90°)13.8 mphScattered Clouds
8:00 PM80.6 °F66.2 °F61 %30.01 in6.2 miEast (90°)9.2 mphPartly Cloudy
9:00 PM78.8 °F69.8 °F74 %30.01 in6.2 miEast (100°)9.2 mphScattered Clouds
10:00 PM78.8 °F69.8 °F74 %30.01 in6.2 miESE (110°)8.1 mphPartly Cloudy
11:00 PM78.0 °F69.0 °F67 %30.01 in6.0 miEast (100°)6.7 mphHaze
11:00 PM78.8 °F68.0 °F69 %30.01 in6.2 miEast (100°)6.9 mphPartly Cloudy
Hourly data recorded from RPLL, located miles away from Cavite, Philippines







STORIES FROM OUR PARTNERS